Location: Congrier
(47.8099°N, 1.1170°W)
Time: 23:01:15
(UTC+00:00)

CZ-4B R/B - Pass Details

Date: 28 January 2023
Orbit: 808 x 881 km, 99.0° (Epoch: 01 April)

Event Time Altitude Azimuth Distance (km) Brightness Sun altitude
Rises 17:30:38 0° 121° (ESE) 3,331 5.9 -5.8°
Reaches altitude 10° 17:33:26 10° 106° (ESE) 2,411 5.1 -6.2°
Maximum altitude 17:37:23 22° 58° (ENE) 1,749 4.3 -6.9°
Drops below altitude 10° 17:41:23 10° 10° (N) 2,452 5.3 -7.5°
Sets 17:44:16 0° 355° (N) 3,404 6.2 -8.0°
